• MPC Preparation (Info)

  • MPEC 2017-M14 : 2017 MB

    The following Minor Planet Electronic Circular may be linked-to from your own Web pages, but must not otherwise be redistributed electronically.

    A form allowing access to any MPEC is at the bottom of this page.


    Read MPEC 2017-M13 Read MPEC 2017-M15


    M.P.E.C. 2017-M14                                Issued 2017 June 18, 17:45 UT
    
         The Minor Planet Electronic Circulars contain information on unusual
             minor planets and routine data on comets.  They are published
        on behalf of Division F of the International Astronomical Union by the
              Minor Planet Center, Smithsonian Astrophysical Observatory,
                              Cambridge, MA 02138, U.S.A.
    
                 Prepared using the Tamkin Foundation Computer Network
    
                                  MPC@CFA.HARVARD.EDU
                URL https://www.minorplanetcenter.net/    ISSN 1523-6714
    
                                        2017 MB
    
    Observations:
         K17M00B  C2017 05 24.45058 14 56 34.789+25 34 18.68         21.4 wLEM014F51
         K17M00B  C2017 05 24.46216 14 56 35.602+25 34 03.26         22.2 wLEM014F51
         K17M00B  C2017 05 30.43708 15 06 56.070+22 46 13.12         21.3 wLEM014F51
         K17M00B  C2017 05 30.44927 15 06 57.335+22 45 46.60         21.6 wLEM014F51
         K17M00B  C2017 05 30.47355 15 06 59.873+22 44 53.44         21.5 wLEM014F51
         K17M00B* C2017 06 16.29858 16 00 28.94 +04 22 45.9          19.7 VqEM014G96
         K17M00B  C2017 06 16.30284 16 00 29.98 +04 22 20.2          20.1 VqEM014G96
         K17M00B  C2017 06 16.30709 16 00 31.02 +04 21 54.6          20.1 VqEM014G96
         K17M00B  C2017 06 16.31134 16 00 32.07 +04 21 28.6          19.9 VqEM014G96
         K17M00B  C2017 06 16.35491 16 00 43.01 +04 17 04.3          20.8 VqEM014G96
         K17M00B KC2017 06 16.35525 16 00 43.23 +04 17 03.0                oEM014691
         K17M00B  C2017 06 16.35721 16 00 43.59 +04 16 51.0          21.6 VqEM014G96
         K17M00B  C2017 06 16.35849 16 00 43.94 +04 16 42.1          20.4 VqEM014G96
         K17M00B KC2017 06 16.35869 16 00 43.96 +04 16 42.0                oEM014691
         K17M00B KC2017 06 16.46804916 01 16.12 +04 06 59.3          20.5 RUEM014474
         K17M00B KC2017 06 16.46965016 01 16.50 +04 06 50.2          20.6 RUEM014474
         K17M00B KC2017 06 16.47142816 01 16.97 +04 06 39.1          20.3 RUEM014474
         K17M00B KC2017 06 16.47320616 01 17.43 +04 06 28.0          20.1 RUEM014474
         K17M00B KC2017 06 16.98045 16 03 36.55 +03 12 46.0                UEM014J95
         K17M00B KC2017 06 16.98454 16 03 37.54 +03 12 20.0                UEM014J95
         K17M00B KC2017 06 16.98863 16 03 38.62 +03 11 55.6          19.8 GUEM014J95
         K17M00B KC2017 06 16.99473 16 03 39.42 +03 11 22.3          19.6  SEM014104
         K17M00B KC2017 06 17.00095 16 03 41.08 +03 10 44.1          19.7  SEM014104
         K17M00B KC2017 06 17.00406 16 03 41.89 +03 10 24.4          19.5  SEM014104
         K17M00B  C2017 06 17.24679 16 04 51.52 +02 45 17.6          19.6 VqEM014G96
         K17M00B  C2017 06 17.25298 16 04 53.09 +02 44 38.3          19.7 VqEM014G96
         K17M00B  C2017 06 17.25475 16 04 53.52 +02 44 27.7                qEM014G96
         K17M00B  C2017 06 17.25767 16 04 54.29 +02 44 09.2          20.6 VqEM014G96
         K17M00B  C2017 06 17.26872 16 04 57.14 +02 43 00.7          19.9 RoEM014926
         K17M00B  C2017 06 17.27127 16 04 57.78 +02 42 44.6          20.0 RoEM014926
         K17M00B  C2017 06 17.27383 16 04 58.43 +02 42 28.9          21.1 RoEM014926
         K17M00B KC2017 06 17.30586 16 05 06.76 +02 39 06.4                oEM014691
         K17M00B KC2017 06 17.31417 16 05 08.94 +02 38 13.2                oEM014691
         K17M00B KC2017 06 17.94973 16 08 11.19 +01 30 26.6          19.9 VqEM014I93
         K17M00B KC2017 06 17.95857 16 08 13.57 +01 29 29.4          19.8 VqEM014I93
         K17M00B KC2017 06 17.96425 16 08 15.09 +01 28 52.6          20.0 VqEM014I93
         K17M00B KC2017 06 17.97877 16 08 19.00 +01 27 18.7          20.1 VqEM014I93
         K17M00B KC2017 06 18.00840 16 08 27.27 +01 24 00.7                UEM014J95
         K17M00B KC2017 06 18.01149 16 08 28.09 +01 23 40.7                UEM014J95
         K17M00B KC2017 06 18.01702 16 08 29.59 +01 23 05.1          19.8 GUEM014J95
         K17M00B  C2017 06 18.16089 16 09 14.48 +01 07 48.8          19.9 VqEM014G96
         K17M00B  C2017 06 18.16252 16 09 14.94 +01 07 37.6          20.0 VqEM014G96
         K17M00B  C2017 06 18.16432 16 09 15.45 +01 07 26.9          21.0 VqEM014G96
         K17M00B  C2017 06 18.16732 16 09 16.27 +01 07 08.1          20.6 VqEM014G96
    
    Observer details:
    104 San Marcello Pistoiese.  Observers P. Bacci, M. Maestripieri.  Measurers
        P. Bacci, L. Tesi, G. Fagioli.  0.60-m f/4 reflector + CCD.
    474 Mount John Observatory, Lake Tekapo.  Observers A. C. Gilmore,
        P. M. Kilmartin.  Measurer P. M. Kilmartin.  1.0-m f/7.7 reflector + CCD.
    691 Steward Observatory, Kitt Peak.  Observers M. J. Brucker, A. F. Tubbiolo.
        0.9-m f/3 reflector + CCD.
    926 Tenagra II Observatory.  Observers M. Schwartz, P. R. Holvorcem.  Measurer
        M. Schwartz.  0.81-m f/7 Ritchey-Chretien + CCD.
    F51 Pan-STARRS 1, Haleakala.  Observers J. Bulger, T. Goggia, T. Lowe,
        A. Schultz, M. Willman.  Measurers K. Chambers, S. Chastel, L. Denneau,
        H. Flewelling, M. Huber, E. Lilly, E. Magnier, R. Wainscoat, C. Waters,
        R. Weryk.  1.8-m Ritchey-Chretien + CCD.
    G96 Mt. Lemmon Survey.  Observer D. C. Fuls.  Measurers E. J. Christensen,
        D. C. Fuls, A. R. Gibbs, A. D. Grauer, J. A. Johnson, R. A. Kowalski,
        S. M. Larson, G. J. Leonard, R. G. Matheny, R. L. Seaman, F. C. Shelly.
        1.5-m reflector + 10K CCD.
    I93 St Pardon de Conques.  Observer F. Losse.  0.40-m f/3.7 reflector + CCD.
    J95 Great Shefford.  Observer P. Birtwhistle.  0.40-m f/6.0 Schmidt-Cassegrain
        + CCD.
    
    Orbital elements:
    2017 MB                                                  Earth MOID = 0.1131 AU
    Epoch 2017 Sept. 4.0 TT = JDT 2458000.5                 MPC
    M  16.49279              (2000.0)            P               Q
    n   0.20862096     Peri.  165.99628     -0.12331201     +0.97435538
    a   2.8155554      Node    96.66893     -0.92774770     -0.04586700
    e   0.6011394      Incl.   10.92357     -0.35224759     -0.22029027
    P   4.72           H   23.2           G   0.15           U   6
    Residuals in seconds of arc
    170524 F51  0.0   0.0     170616 474  0.3-  0.0     170617 926  0.2-  0.3+
    170524 F51  0.1-  0.1-    170616 474  0.0   0.3-    170617 691  0.1+  0.2+
    170530 F51  0.0   0.0     170616 474  0.2+  0.5-    170617 691  0.5+  0.6-
    170530 F51  0.0   0.0     170616 J95  0.7+  0.2+    170617 I93  0.7-  0.5+
    170530 F51  0.0   0.1+    170616 J95  0.5-  0.4-    170617 I93  0.5-  0.4+
    170616 G96  0.5+  0.0     170616 J95  0.3-  0.7+    170617 I93  0.6-  0.3+
    170616 G96  0.2+  0.1+    170616 104  0.5-  0.6-    170617 I93  0.3-  0.2+
    170616 G96  0.0   0.2+    170617 104  0.1+  0.0     170618 J95  0.4+  0.3-
    170616 G96  0.2-  0.0     170617 104  0.0   0.3-    170618 J95  0.1+  0.3-
    170616 G96  0.1-  0.1+    170617 G96  0.2+  0.1-    170618 J95  0.1-  0.1-
    170616 691  1.5+  0.4+    170617 G96  0.0   0.5-    170618 G96  0.9-  0.1+
    170616 G96  0.2-  0.8+    170617 G96  0.4-  0.0     170618 G96  0.6-  0.5-
    170616 G96  0.2+  0.3-    170617 G96  0.1-  0.1-    170618 G96  0.2-  0.5+
    170616 691  0.6-  0.3+    170617 926  0.1+  0.1-    170618 G96  0.0   1.2+
    170616 474  0.0   0.6-    170617 926  0.1-  0.1-
    
    Ephemeris:
    2017 MB                  a,e,i = 2.82, 0.60, 11                  q = 1.1230
    Date    TT    R. A. (2000) Decl.     Delta      r     Elong.  Phase     V
    2017 05 19    14 49 46.7 +27 02 13   0.2338  1.1797   131.5    39.9    22.0
    ...
    2017 06 03    15 14 55.9 +20 21 10   0.1714  1.1365   132.2    41.4    21.3
    ...
    2017 06 11    15 39 00.9 +12 14 31   0.1439  1.1254   137.4    37.7    20.8
    ...
    2017 06 17    16 03 42.5 +03 11 40   0.1287  1.1230   144.3    31.9    20.4
    2017 06 18    16 08 25.8 +01 25 54   0.1268  1.1230   145.7    30.6    20.3
    2017 06 19    16 13 19.8 -00 23 48   0.1251  1.1233   147.2    29.4    20.2
    ...
    2017 06 25    16 46 20.4 -12 19 56   0.1202  1.1275   156.3    21.3    19.9
    ...
    2017 07 03    17 38 00.8 -27 47 38   0.1290  1.1409   163.5    14.7    19.9
    ...
    2017 07 18    19 12 54.0 -43 46 52   0.1853  1.1880   156.1    20.3    20.9
    
    A. U. Tomatic                (C) Copyright 2017 MPC           M.P.E.C. 2017-M14
    

    Read MPEC 2017-M13 Read MPEC 2017-M15


    MPEC number:

    Enter an MPEC number in one of the following forms:

    • 1997-B01 (the full form)
    • J97B01 (the packed version of the full form)
    • B01 (the abbreviated form)